Theta_e
317 316 315 316 315 315 315 315 315 316 315 316 317 318 319 320 320 319 320 322 323 323 323 323 325 326 327 329 332 330 331 332 334 335 332 333 338 339 340 337 339 338 336 340 341 344 344 335 338 342 338 339 337 334
318 317 315 315 315 315 315 315 315 315 316 316 316 317 318 319 319 319 316 322 322 321 322 322 323 324 324 328 328 329 329 330 333 334 334 338 343 338 337 341 335 341 340 340 337 340 335 333 336 337 336 336 337 336
317 317 315 314 314 315 314 314 314 314 315 316 317 317 318 318 319 320 318 318 319 320 321 323 323 323 326 325 324 326 326 327 329 327 331 336 339 336 335 337 336 336 330 335 335 337 333 332 332 333 338 338 334 335
318 317 315 314 314 314 314 314 313 313 313 315 316 317 318 318 319 320 320 318 319 320 321 323 323 326 327 328 328 327 325 325 325 325 328 331 335 332 333 333 335 335 332 332 332 331 330 333 332 334 335 336 339 334
320 317 315 314 313 314 314 314 313 313 313 313 315 317 317 317 319 319 320 317 319 320 321 320 320 324 326 327 327 327 327 327 327 327 328 329 331 334 334 335 336 331 333 334 334 331 331 332 332 336 333 333 334 336
321 317 316 314 313 313 313 313 313 313 312 313 314 317 318 319 319 318 319 320 320 320 320 321 322 323 325 328 329 328 327 327 327 328 328 327 327 328 332 337 337 333 330 330 331 331 330 331 336 338 333 335 334 335
324 319 317 314 314 313 312 312 312 312 312 312 314 318 318 319 319 318 319 321 320 320 320 320 325 329 328 326 329 327 327 327 327 328 329 328 327 327 329 331 332 332 333 333 331 331 332 332 334 336 339 336 334 334
325 320 317 315 314 313 312 311 312 311 312 313 314 318 319 319 318 318 319 319 319 319 319 322 326 328 329 329 329 327 327 327 327 327 328 330 330 330 330 330 328 328 332 332 332 331 330 330 330 329 330 332 333 333
326 320 317 316 315 313 312 311 310 311 312 313 316 318 318 317 317 318 318 318 318 318 320 322 326 330 328 329 328 329 328 331 329 329 328 330 331 336 334 330 328 328 330 331 331 332 332 332 334 333 333 333 333 336
324 319 317 317 315 313 312 310 310 312 313 314 316 317 317 317 317 317 317 317 317 318 318 319 320 323 323 327 330 330 331 333 333 332 330 331 331 331 331 330 330 332 331 332 332 332 334 335 335 335 333 333 333 336
322 319 317 317 316 313 311 310 312 313 314 315 316 316 317 317 317 317 317 317 316 317 317 318 320 322 322 326 329 329 333 334 336 333 332 334 334 332 331 331 330 329 330 330 334 335 335 335 337 338 336 336 337 338
320 318 317 317 316 312 311 309 313 312 314 315 316 316 316 316 316 318 319 318 318 321 321 322 323 322 323 323 328 331 332 333 336 334 336 334 332 331 333 333 330 329 330 336 336 336 338 339 339 339 339 338 339 347
318 317 316 316 314 310 309 309 313 312 314 315 316 316 316 315 316 319 320 321 322 321 323 325 327 326 325 324 330 333 334 335 332 335 334 335 340 337 335 334 333 334 337 337 338 339 340 340 340 339 340 338 338 342
316 314 315 313 310 309 309 308 311 313 314 315 315 312 318 319 318 319 320 321 321 322 324 325 326 328 326 330 331 332 331 332 336 334 333 333 340 338 335 336 337 338 338 338 338 339 340 341 340 337 339 337 340 347
314 314 312 311 310 309 308 307 308 313 313 314 315 317 318 318 319 320 319 320 321 322 324 325 326 326 328 326 328 331 333 332 330 329 328 328 333 338 337 337 337 337 338 338 339 339 340 341 342 337 337 337 343 345
312 311 311 311 310 308 307 307 308 312 313 314 314 317 317 319 319 319 320 322 322 324 326 325 327 328 328 328 329 331 330 330 335 333 330 337 334 343 341 339 338 338 339 339 339 339 340 341 343 341 339 340 345 345
311 310 312 311 309 307 306 307 310 312 312 313 314 315 317 319 320 321 321 321 321 322 326 325 327 327 326 327 328 329 332 335 333 331 327 325 330 342 341 340 340 340 340 339 339 339 339 340 340 341 341 339 344 346
310 310 310 308 307 306 307 310 311 311 311 312 313 314 315 316 317 317 318 319 319 321 323 325 323 326 327 328 328 327 328 329 331 328 325 323 325 331 337 339 341 340 340 340 340 338 338 338 338 340 341 341 342 346
309 309 308 307 306 306 307 308 309 309 310 311 312 313 314 315 316 317 318 318 318 319 321 322 324 325 324 323 324 323 323 325 328 326 324 322 324 325 324 326 340 339 340 339 339 337 337 339 339 340 341 342 343 341
308 307 307 305 305 307 307 308 309 309 312 312 312 313 314 315 315 315 316 317 318 319 320 322 322 321 321 321 322 323 322 322 324 325 324 322 324 327 329 326 330 331 337 332 334 333 336 337 337 337 338 339 338 338
307 306 305 304 305 307 307 308 309 309 310 311 311 312 313 314 314 315 316 316 319 319 321 321 321 320 320 321 320 320 319 319 321 324 322 322 322 326 327 325 325 329 334 333 336 338 336 334 335 338 339 339 336 337
306 305 304 304 305 305 307 308 308 310 310 311 312 313 315 315 315 316 316 317 319 319 319 319 319 320 320 320 321 321 320 321 321 322 321 322 323 323 324 324 326 329 330 329 334 333 334 333 332 337 337 335 333 335
304 304 304 304 306 307 306 308 310 309 311 312 312 312 313 314 314 315 317 317 318 318 319 320 320 319 319 318 318 319 319 320 321 322 321 322 322 323 326 328 330 331 329 327 327 328 330 328 328 331 334 334 332 331
303 304 307 307 306 307 308 309 310 310 311 312 312 313 313 314 314 315 316 316 316 317 318 319 320 320 320 320 321 321 320 321 321 322 322 322 324 326 328 330 328 327 326 326 326 327 327 326 328 332 332 334 334 334
304 305 307 306 308 308 308 310 311 311 311 312 312 312 313 314 316 316 317 317 316 316 316 317 317 317 317 319 320 320 320 321 322 322 323 323 325 326 327 326 327 325 324 324 324 325 326 325 324 330 331 330 332 335
307 305 305 308 308 309 309 309 310 311 312 313 312 313 313 315 315 315 315 315 316 316 316 316 317 318 318 319 319 319 318 319 321 322 322 323 323 325 325 325 326 324 324 323 323 325 325 324 323 325 329 330 330 330
307 307 306 306 308 309 310 310 311 314 314 314 314 315 315 315 315 315 314 315 316 315 315 316 315 316 316 317 318 318 318 319 321 322 322 323 324 324 325 324 324 323 323 323 324 324 324 324 324 324 326 331 334 333
306 307 308 309 310 309 312 312 313 313 314 313 314 314 315 315 315 314 314 314 314 314 314 314 315 316 316 317 318 318 317 317 320 322 322 322 323 324 324 323 323 323 322 322 323 326 326 325 325 325 332 334 335 334
306 308 308 309 310 312 313 313 313 312 312 312 314 314 313 313 313 313 313 313 313 313 314 314 315 315 315 317 316 317 318 319 321 322 321 321 322 324 323 323 322 322 322 321 321 321 322 322 323 328 331 335 335 333
307 308 309 310 312 312 311 311 311 311 311 310 310 310 310 311 311 311 311 311 312 313 313 314 313 314 314 316 315 316 318 319 320 320 322 321 322 322 322 321 321 321 321 322 324 324 324 323 324 328 332 334 334 331
309 310 310 310 311 310 310 310 310 310 310 310 310 310 310 310 310 310 310 310 311 312 312 311 312 313 313 313 314 313 314 316 316 319 319 319 320 320 321 322 322 321 321 322 324 326 325 322 323 327 332 332 333 333
312 312 311 312 312 311 310 310 310 310 310 310 310 310 311 312 311 310 309 309 310 311 311 311 311 312 313 313 313 313 314 314 313 317 317 316 317 320 321 322 323 322 323 323 325 325 325 326 326 330 332 332 332 333
305 305 307 307 308 309 309 309 309 309 309 309 310 311 311 312 313 312 312 312 313 312 311 312 311 311 311 312 312 311 311 312 312 311 312 315 316 318 320 321 322 322 322 325 325 326 327 328 330 332 332 333 332 332
Wind_Speed
15 15 16 14 12 11 11 11 11 11 9 9 9 9 8 7 7 8 5 3 9 9 30 26 24 22 22 15 6 19 13 9 6 5 0 4 4 4 4 4 4 3 1 1 5 1 14 29 17 8 5 7 17 25
15 15 14 15 13 12 11 11 11 11 11 10 10 10 9 8 7 9 5 5 6 13 22 27 28 28 28 24 22 9 14 17 5 3 4 2 3 2 1 3 2 4 3 1 3 3 2 18 13 8 15 17 11 20
17 15 14 16 13 12 12 11 11 11 12 11 11 12 12 12 9 11 10 9 11 14 25 21 20 16 18 23 21 19 16 12 17 22 7 3 5 3 3 3 1 2 2 4 1 3 7 16 23 22 12 23 11 4
19 15 13 14 12 12 12 12 11 12 12 11 11 11 11 9 8 10 12 6 8 8 6 12 13 18 19 17 14 31 31 25 24 21 10 3 1 7 4 3 4 6 5 7 5 9 15 16 8 16 19 14 7 16
19 15 13 12 12 12 12 12 12 12 12 11 10 9 9 7 8 10 12 9 10 7 5 19 36 14 12 14 15 18 26 23 20 10 4 4 7 3 5 3 4 9 6 4 6 11 10 14 9 4 11 20 19 11
18 16 14 13 13 13 13 13 12 12 11 11 10 9 8 6 6 6 4 2 6 12 6 5 15 25 16 17 22 22 20 18 16 12 5 9 16 12 4 5 6 27 25 16 12 17 28 12 20 20 10 14 26 12
20 17 15 13 12 13 13 13 12 11 11 9 8 8 7 6 9 8 3 2 4 8 4 7 7 9 11 19 16 15 19 17 19 18 13 14 16 18 4 8 13 12 19 23 20 22 18 28 23 21 28 25 27 21
22 19 16 15 13 12 13 12 12 11 10 8 7 6 5 6 8 14 14 4 1 2 5 3 5 8 6 13 14 17 18 21 20 16 10 7 12 12 6 10 20 26 14 11 13 16 13 12 13 15 17 14 11 11
24 21 18 16 15 13 12 11 11 8 7 6 3 3 3 4 5 8 13 15 13 7 4 4 4 5 15 13 6 10 17 4 14 6 9 8 6 5 6 23 22 23 21 14 18 16 10 13 12 6 3 7 12 16
26 23 20 18 17 13 11 10 9 5 5 3 4 3 2 2 6 1 2 3 4 6 8 6 10 7 13 9 4 10 4 4 3 5 14 7 10 23 26 30 27 15 15 18 9 14 13 15 15 13 9 12 18 18
27 25 22 20 18 14 10 8 4 6 7 7 3 2 2 1 4 3 3 4 4 4 7 8 19 13 9 4 3 5 3 3 3 5 5 4 5 14 33 34 35 28 21 22 12 11 11 16 17 17 17 20 17 17
23 24 23 22 18 15 11 7 6 11 7 6 2 3 4 4 4 3 3 4 4 4 7 7 10 12 8 10 5 5 3 2 5 7 3 7 9 28 23 25 27 24 20 14 10 11 11 14 18 19 20 21 13 20
22 23 23 22 18 16 12 9 10 12 8 6 3 3 4 5 4 5 6 4 4 6 7 5 5 8 10 10 8 3 5 4 3 3 3 3 9 10 12 12 21 19 15 12 10 8 8 12 14 16 17 16 10 11
22 22 23 21 19 16 14 12 13 15 8 5 5 4 4 5 5 7 9 8 16 15 16 6 5 4 3 4 3 4 4 4 4 5 6 3 9 13 15 18 19 17 15 14 10 6 4 4 5 7 11 13 13 19
22 22 22 20 19 17 15 14 14 17 8 5 6 5 7 14 14 14 22 19 19 16 11 6 4 3 1 2 4 5 4 5 6 11 10 24 17 21 21 20 18 16 14 10 7 4 1 3 3 4 9 12 19 18
22 22 25 21 19 17 16 14 15 15 6 6 9 5 10 11 14 18 19 17 18 8 8 4 2 1 2 3 6 6 4 3 1 6 26 30 18 23 23 21 18 13 12 10 5 6 4 4 5 4 3 12 18 19
25 28 23 20 19 17 16 15 13 9 7 7 8 18 19 14 11 12 8 10 7 10 3 3 4 6 2 2 3 4 4 5 11 24 35 36 43 11 21 18 15 14 12 9 9 8 7 6 4 6 7 9 16 19
30 26 18 21 22 19 20 15 8 7 9 13 7 10 18 22 26 28 23 16 12 9 8 4 3 4 4 4 5 4 12 20 17 22 34 39 34 30 19 5 13 12 11 11 10 9 9 6 7 7 7 9 12 18
29 24 19 21 24 18 10 9 8 5 11 8 14 16 18 20 23 25 27 28 23 18 7 4 4 4 5 7 10 19 26 19 15 20 25 30 29 20 34 44 14 11 10 10 10 9 8 6 8 8 5 7 16 18
22 20 18 20 22 8 6 5 7 7 6 6 14 19 22 23 23 26 31 27 22 16 8 5 5 13 12 14 17 18 19 20 22 24 18 22 9 8 29 35 23 25 13 11 9 6 3 5 4 7 8 5 7 7
23 20 20 23 21 9 7 5 7 6 6 7 11 18 19 20 25 29 29 27 25 19 5 16 21 23 22 23 20 21 26 26 22 20 25 23 13 18 27 36 41 33 21 15 15 14 6 4 2 2 5 4 8 8
25 24 22 20 7 7 8 10 6 3 5 10 14 16 12 12 17 22 23 24 24 25 24 25 29 26 23 24 25 22 20 19 21 21 25 24 17 14 27 39 33 26 22 13 14 9 7 4 1 1 7 9 11 5
23 19 8 10 6 7 7 9 8 7 5 4 5 5 6 12 23 22 14 14 24 27 25 28 32 31 31 32 32 31 27 23 22 24 23 22 23 21 20 26 27 31 16 5 2 2 3 2 3 5 6 10 10 7
21 10 7 9 12 5 6 8 7 6 6 7 4 7 9 11 13 10 8 16 23 25 25 25 29 30 31 31 29 29 26 24 25 20 18 19 19 15 14 18 25 14 7 7 8 10 10 9 9 9 7 5 6 7
6 7 6 6 9 6 6 7 10 8 8 8 10 8 5 3 4 7 11 12 19 23 23 22 26 26 25 26 27 26 24 25 23 20 16 16 7 5 10 17 13 9 6 8 14 18 15 13 12 10 9 7 6 6
5 10 7 9 8 7 7 5 9 17 13 15 7 7 13 6 9 6 6 16 16 16 20 21 21 23 22 22 25 20 22 20 26 22 18 24 15 16 21 26 26 10 10 10 16 12 12 13 13 12 13 11 10 8
5 7 13 13 14 15 9 15 15 4 6 8 9 12 9 4 5 5 9 6 3 7 8 6 11 15 15 13 18 24 21 15 21 22 20 22 25 29 27 21 24 13 10 11 5 3 11 8 6 8 15 13 10 7
10 7 15 19 20 18 14 11 11 12 10 11 9 10 6 6 4 11 8 6 5 6 9 13 14 11 10 10 5 10 15 15 18 18 17 22 25 32 28 26 22 14 12 12 9 6 6 6 9 11 6 11 11 5
9 10 14 12 17 12 13 13 13 20 21 21 12 11 15 24 20 20 19 16 9 8 6 9 12 11 13 8 11 14 9 11 20 21 20 21 23 27 17 18 15 11 8 10 14 15 16 19 18 11 8 9 10 8
18 19 17 16 13 13 18 19 21 20 21 12 11 16 19 19 21 20 21 19 16 14 10 8 11 14 9 8 5 8 12 11 20 14 14 20 21 22 18 17 19 18 18 19 17 17 15 16 17 9 8 10 9 4
16 11 14 16 12 17 19 18 18 20 21 22 21 20 21 23 28 29 24 19 17 14 14 12 12 14 14 12 11 10 10 12 8 17 12 11 13 18 19 15 13 20 17 17 16 16 11 10 11 10 9 10 12 8
5 5 7 8 8 9 9 9 13 18 22 23 26 27 27 24 25 29 33 30 26 22 17 17 17 19 17 15 12 10 7 10 10 12 12 12 7 6 8 8 3 3 9 16 12 8 15 7 11 13 12 13 15 13
3 4 3 3 3 4 3 4 3 6 10 14 18 20 20 21 20 28 26 24 24 26 25 20 18 21 20 16 15 12 13 11 14 12 6 10 15 10 6 2 6 7 7 9 8 6 5 13 11 11 11 11 12 12
Wind_Direction
306 313 325 318 310 306 305 307 308 311 307 305 302 297 293 285 277 282 239 310 280 274 278 279 287 300 314 313 327 336 328 10 347 4 283 302 12 44 360 10 346 60 32 84 79 206 248 360 356 39 248 274 287 348
300 300 312 319 308 301 301 303 306 307 300 293 291 290 292 291 275 278 267 244 267 275 270 279 277 267 269 261 284 294 289 300 327 13 354 345 92 93 325 7 353 37 71 334 322 218 227 354 308 311 284 285 307 324
299 291 301 318 301 298 295 297 303 306 303 296 287 284 286 283 272 259 264 273 294 294 300 276 266 273 277 266 261 256 268 272 303 329 318 316 102 153 159 193 192 31 237 165 282 251 281 279 291 325 336 290 288 343
299 285 287 312 304 297 294 296 300 303 303 297 291 288 292 274 264 256 265 263 284 297 278 289 317 277 255 244 266 241 250 267 275 290 307 272 254 158 186 198 177 208 173 197 213 219 275 268 286 286 315 343 50 10
290 285 272 301 301 297 293 292 293 297 300 294 290 287 289 272 258 262 256 252 241 277 293 295 311 287 269 249 255 243 240 251 259 256 249 266 290 169 120 165 242 186 190 158 226 224 210 238 233 172 324 303 306 275
278 281 263 280 297 302 298 293 291 293 296 292 287 284 276 269 256 238 305 317 241 238 296 297 288 287 263 247 240 235 241 246 251 250 248 241 256 270 235 200 236 207 200 232 223 227 225 253 205 202 191 223 247 258
269 272 259 264 285 300 296 295 293 293 291 286 280 277 268 249 225 197 234 266 265 233 271 290 279 277 258 232 249 243 219 230 239 242 239 245 248 263 255 265 277 256 220 234 256 261 253 237 243 233 229 243 262 261
255 258 255 257 268 286 298 296 293 287 285 279 271 265 267 244 230 234 236 228 57 251 258 278 280 281 328 226 227 231 225 230 232 232 234 251 263 228 236 228 258 268 254 263 288 278 274 275 270 271 264 272 285 270
250 242 243 249 257 269 286 293 297 276 271 263 253 247 231 210 218 243 250 253 256 259 277 253 289 309 342 353 312 262 209 213 234 209 218 225 227 230 223 219 235 254 252 255 270 289 290 294 311 273 247 290 296 291
244 234 235 242 245 255 269 287 303 251 233 170 175 167 236 235 230 290 228 221 230 222 228 244 256 267 322 334 308 343 274 204 221 224 218 215 236 242 245 259 265 262 237 235 249 274 285 293 297 302 290 270 271 281
239 231 227 235 240 241 254 269 272 190 165 176 188 210 211 204 183 218 229 210 208 247 228 244 233 247 263 261 272 240 289 281 272 237 221 214 228 226 242 242 244 243 260 241 245 235 255 260 270 274 268 264 301 307
237 226 225 232 232 228 230 230 205 183 180 188 204 204 196 200 220 241 213 196 217 246 218 228 231 221 237 224 235 237 230 244 259 315 249 238 240 243 243 239 232 230 230 212 229 238 246 254 255 254 252 258 273 144
239 228 222 226 219 213 211 210 196 192 190 195 214 218 200 200 226 218 204 198 222 215 237 256 237 220 213 233 239 256 194 224 248 239 268 272 312 187 154 188 209 190 185 190 203 225 240 258 242 237 235 239 253 162
227 219 214 217 209 205 203 201 197 194 188 192 198 245 213 200 227 209 220 227 221 266 284 313 301 326 346 268 265 232 232 302 228 229 256 268 220 178 168 155 158 168 179 191 187 196 239 289 259 228 220 226 217 176
216 212 210 211 203 201 201 197 196 195 198 220 208 224 222 232 247 249 227 248 261 276 286 298 275 249 78 25 344 293 245 211 206 241 251 266 272 199 178 173 172 178 183 185 182 186 205 311 324 230 220 219 210 203
209 202 213 209 201 198 194 195 195 192 211 227 227 237 245 246 245 252 260 249 260 284 269 255 267 301 237 202 191 264 236 245 35 345 334 317 238 200 181 172 171 179 186 181 191 191 204 249 237 252 227 194 198 208
199 206 212 203 195 188 187 178 176 205 220 225 232 218 251 283 275 278 309 327 322 260 235 230 217 214 110 244 258 235 279 16 19 350 353 353 358 259 178 170 172 177 167 180 200 213 207 235 234 269 244 229 213 215
202 201 196 182 182 179 179 182 193 225 236 237 243 221 224 244 271 279 282 284 286 273 259 245 206 205 215 220 219 255 317 338 359 353 343 351 347 350 1 309 192 197 190 207 213 218 227 232 248 256 279 238 224 218
200 189 174 175 172 168 180 200 225 255 237 240 240 233 236 247 254 258 269 268 269 256 257 232 239 216 231 257 269 290 302 332 336 336 341 355 348 318 330 327 264 202 201 215 221 225 243 238 235 260 284 264 243 231
185 174 172 162 166 171 178 226 205 246 245 249 241 235 237 241 249 252 255 258 260 240 217 223 224 236 251 259 267 284 319 326 328 327 329 341 349 241 261 310 320 311 236 225 238 236 244 286 316 299 276 293 310 289
162 162 160 170 188 207 206 220 222 241 255 248 258 246 250 249 245 246 251 252 246 226 231 230 245 262 267 273 274 280 283 289 293 300 315 314 303 218 246 284 295 298 243 238 235 217 211 239 316 293 269 285 330 344
170 163 159 175 184 210 240 223 218 229 238 251 268 252 256 256 251 247 253 247 242 235 232 244 249 255 270 275 279 267 272 283 281 281 287 292 278 256 250 272 276 283 263 255 196 180 192 234 318 198 281 298 318 2
161 164 152 175 226 213 253 206 206 210 231 230 255 248 238 244 246 254 246 246 249 245 241 242 246 252 250 260 265 269 273 274 266 277 282 282 269 283 269 255 264 272 235 205 216 255 237 261 301 281 285 298 306 325
155 173 188 193 204 226 205 204 206 239 226 229 241 252 271 275 267 254 255 250 253 251 247 246 243 245 247 250 251 254 260 257 250 264 266 260 257 244 230 235 296 250 212 240 262 266 269 282 250 249 271 284 302 325
163 199 222 226 206 219 226 213 208 219 229 223 245 248 250 265 249 251 252 259 252 252 252 247 245 249 246 253 251 252 254 239 233 251 251 222 208 183 224 270 295 220 216 251 253 247 238 251 261 235 246 287 244 249
207 212 209 207 206 205 206 224 216 224 235 240 242 259 235 252 258 254 257 262 258 250 252 251 249 244 245 252 244 242 256 248 231 235 236 207 198 233 266 289 305 273 238 250 263 240 239 254 253 254 247 261 287 260
221 227 214 228 234 219 225 237 252 258 226 244 229 233 246 234 253 258 275 337 260 353 354 310 279 276 269 257 236 234 239 239 231 242 243 219 223 230 251 277 300 262 248 262 300 248 240 248 262 269 248 243 256 292
231 244 227 234 217 229 241 243 258 265 258 260 261 209 192 220 241 288 334 317 252 269 289 287 278 299 285 267 226 206 233 250 237 233 234 226 228 228 242 270 282 258 251 262 254 257 275 283 282 282 244 241 251 254
230 229 227 251 266 255 236 250 257 258 263 264 263 254 269 276 276 277 269 262 268 268 267 284 285 275 270 226 232 239 251 233 207 212 224 228 222 222 243 269 261 262 268 251 257 261 256 264 264 256 260 241 262 281
246 238 249 254 260 259 261 267 280 281 283 296 306 310 306 289 279 282 282 279 255 249 248 253 262 281 271 228 221 254 219 235 222 213 228 229 231 238 254 253 251 247 238 240 239 233 234 239 240 236 210 232 250 247
253 251 242 249 253 261 268 275 279 287 287 285 280 274 275 282 283 277 290 295 303 267 233 238 248 255 265 252 243 232 278 234 212 213 247 239 247 215 248 256 244 223 222 237 219 212 221 216 210 211 213 211 213 237
338 2 344 291 289 299 310 282 278 280 282 278 273 276 279 272 262 268 269 274 278 286 278 233 233 249 240 240 256 241 242 268 339 189 217 263 213 223 196 216 247 166 189 213 194 200 201 201 192 208 214 203 200 205
335 320 261 272 265 260 332 314 288 281 276 270 270 267 266 261 271 269 263 258 257 256 262 263 243 242 251 249 232 230 229 229 251 283 229 215 237 248 216 137 104 139 162 180 193 195 195 202 187 182 186 197 201 204